Flag Weather past 2 weeks in Vista, California, U.S.A.

Now
68 °F

Sunny.


Feels Like: 68 °F
Forecast: 49 / 73 °F
Wind: 8 mph from West

Location: McClellan-Palomar Airport

Current Time: Nov 23, 2014 at 2:54:52 PM

Latest Report: Nov 23, 2014 at 1:53 PM


Visibility: 10 mi

Pressure: 30.04 "Hg

Humidity: 63%

Dew point: 55 °F

Location of VistaLocation

Historic Weather in Vista — Graph

°F

Vista temperature yesterday

Maximum temperature yesterday: 67 °F (at 11:53 AM)
Minimum temperature yesterday: 53 °F (at 3:53 AM)
Average temperature yesterday: 60 °F

Past Weeks' High & Low Weather Summary

 TemperatureHumidityPressure
High78 °F (Nov 8, 12:53 PM)97% (Nov 9, 3:53 AM)30.15 "Hg (Nov 9, 3:53 AM)
Low50 °F (Nov 18, 5:53 AM)8% (Nov 16, 5:53 PM)29.82 "Hg (Nov 9, 3:53 PM)
Average62 °F64%30.01 "Hg
* Reported Nov 8 12:53 PM — Nov 23 12:53 PM, Vista, Weather by CustomWeather, © 2014

Note: Actual official high and low records may vary slightly from our data, if they occured in-between our weather recording intervals... More about our weather records

Advertising

Vista weather history for previous 24 hours

 ConditionsComfort  
Time TempWeatherWind HumidityBarometerVisibility
12:53 PM
Nov 23
68 °FSunny.9 mph63%30.03 "Hg10 mi
11:53 AM69 °FSunny.10 mph57%30.05 "Hg10 mi
10:53 AM71 °FSunny.5 mph38%30.09 "Hg10 mi
9:53 AM67 °FSunny.6 mph47%30.10 "Hg10 mi
8:53 AM63 °FSunny.5 mph58%30.10 "Hg10 mi
7:53 AM58 °FSunny.No wind75%30.08 "Hg10 mi
6:53 AM54 °FSunny.No wind86%30.06 "Hg10 mi
5:53 AM54 °FClear.3 mph86%30.04 "Hg10 mi
4:53 AM55 °FClear.No wind87%30.03 "Hg10 mi
3:53 AM55 °FClear.No wind83%30.01 "Hg10 mi
2:53 AM56 °FPassing clouds.No wind81%30.02 "Hg10 mi
1:53 AM57 °FPassing clouds.6 mph83%30.02 "Hg10 mi
12:53 AM58 °FOvercast.5 mph87%30.02 "Hg10 mi
11:53 PM
Nov 22
57 °FClear.No wind87%30.03 "Hg9 mi
10:53 PM58 °FClear.3 mph87%30.04 "Hg10 mi
9:53 PM59 °FClear.3 mph87%30.04 "Hg10 mi
8:53 PM61 °FPassing clouds.3 mph83%30.03 "Hg10 mi
7:53 PM61 °FClear.3 mph87%30.02 "Hg10 mi
6:53 PM61 °FPassing clouds.5 mph87%30.02 "Hg10 mi
5:53 PM63 °FClear.3 mph84%30.01 "Hg10 mi
4:53 PM64 °FPassing clouds.5 mph81%30.02 "Hg10 mi
3:53 PM65 °FPassing clouds.7 mph78%30.02 "Hg10 mi
2:53 PM66 °FSunny.7 mph70%30.03 "Hg10 mi
Weather by CustomWeather, © 2014

See weather overviewHow to use our weather pages